Location: Ballingbuur
(53.0000°N, 5.7667°E)
Time: 19:50:35
(UTC+00:00)

USA 308 - Pass Details

Date: 29 November 2020
Orbit: 567 x 580 km, 54.0° (Epoch: 22 January)

Event Time Altitude Azimuth Distance (km) Brightness Sun altitude
Exits shadow 05:13:17 46° 288° (WNW) 783 3.1 -18.8°
Maximum altitude 05:14:31 81° 7° (N) 588 2.8 -18.6°
Drops below altitude 10° 05:18:49 10° 96° (E) 1,887 6.8 -18.0°
Sets 05:21:05 0° 97° (E) 2,787 8.1 -17.7°
